DateTimeUTC,F1_A11,F1_S11,BsB_S11,BsG_S11,BsR_S11,BbsB_S11,BbsG_S11,BbsR_S11,BaB_A11,BaG_A11,BaR_A11,Tu_S11,T_S11,Uu_S11,U_S11,P_S11,T1_A11
2021-03-17T22:00:00Z,00040200,20000000,,,,,,,-000.47,-000.89,-000.66,17.4,24.5,08.8,05.7,0649.8,31.0
2021-03-17T22:01:00Z,00040200,20000000,,,,,,,-001.51,-001.28,-001.68,17.4,24.6,08.8,05.7,0649.8,31.0
2021-03-17T22:02:00Z,00040200,20000000,,,,,,,-001.61,-001.83,-000.81,17.4,24.6,08.5,05.5,0649.8,31.0
2021-03-17T22:03:00Z,00040200,60000000,,,,,,,-001.20,-001.18,-000.47,17.4,24.6,08.4,05.4,0649.8,31.0
2021-03-17T22:04:00Z,00040200,40000000,-000.00,-000.13,0000.06,0000.42,0000.03,0000.11,0000.32,0000.55,-000.18,17.6,24.4,06.3,04.1,0650.6,30.9
2021-03-17T22:05:00Z,00040200,00000000,-000.62,0000.16,0000.28,0000.27,0000.06,0000.03,0000.41,0000.18,0000.10,17.6,24.4,06.1,04.0,0650.6,30.9
2021-03-17T22:06:00Z,00040200,00000000,-000.11,0000.15,0000.08,-000.19,0000.03,-000.17,-000.30,0000.36,0000.29,17.6,24.4,06.2,04.1,0650.7,30.9
2021-03-17T22:07:00Z,00040200,00000000,-000.05,0000.20,0000.41,0000.13,0000.10,0000.22,0000.21,-000.54,0000.16,17.6,24.4,06.0,04.0,0650.6,30.9
2021-03-17T22:08:00Z,00040200,00000000,0000.17,0000.25,0000.48,-000.17,0000.20,0000.28,0000.41,0001.00,0000.60,17.6,24.3,06.2,04.1,0650.5,30.9
2021-03-17T22:09:00Z,00040200,00000000,0000.22,-000.01,0000.16,-000.10,0000.11,-000.03,0001.48,0001.29,0001.27,17.6,24.3,06.5,04.3,0650.3,30.9
2021-03-17T22:10:00Z,00040200,00000000,-000.25,0000.21,0000.29,-000.29,0000.07,0000.05,0000.45,0000.19,-000.06,17.6,24.3,06.7,04.4,0650.2,30.9
2021-03-17T22:11:00Z,00040200,00000000,0000.08,0000.10,0000.45,0000.12,0000.29,0000.25,0000.12,0000.30,0000.51,17.6,24.3,06.8,04.5,0650.2,30.9
2021-03-17T22:12:00Z,00040200,00000000,-000.06,0000.15,0000.40,-000.04,0000.06,0000.07,0001.09,0000.64,0000.59,17.6,24.3,06.6,04.4,0650.2,30.9
2021-03-17T22:13:00Z,00040200,00000000,0000.34,0000.29,0000.36,-000.14,0000.01,0000.10,0001.11,0001.02,0000.69,17.6,24.3,06.7,04.4,0650.2,30.9
2021-03-17T22:14:00Z,00040200,00000000,0000.72,0000.47,0000.39,0000.15,0000.11,0000.28,0000.58,0001.04,0000.78,17.6,24.3,07.0,04.6,0650.0,30.9
2021-03-17T22:15:00Z,00040200,00000000,0000.06,0000.28,0000.15,0000.09,-000.01,-000.01,0002.85,0002.95,0002.33,17.6,24.3,07.9,05.2,0650.0,30.9
2021-03-17T22:16:00Z,00040200,00000000,0000.75,0000.22,0000.24,0000.01,0000.16,0000.16,0001.36,0000.96,0000.85,17.6,24.3,08.5,05.6,0650.0,30.9
2021-03-17T22:17:00Z,00040200,00000000,0000.16,0000.33,0000.43,-000.03,0000.07,0000.08,0000.34,0000.06,0000.14,17.5,24.3,08.7,05.7,0650.1,30.9
2021-03-17T22:18:00Z,00040200,00000000,0000.69,0000.40,0000.65,0000.23,-000.01,0000.13,-001.59,-001.67,-001.06,17.5,24.3,08.2,05.4,0650.2,30.9
2021-03-17T22:19:00Z,00040200,00000000,0001.05,0000.53,0000.47,0000.13,0000.18,0000.07,0002.66,0002.72,0001.85,17.5,24.3,07.2,04.8,0650.3,30.9
2021-03-17T22:20:00Z,00040200,00000000,0000.07,0000.40,0000.46,0000.53,0000.29,0000.13,0002.22,0002.72,0002.34,17.5,24.3,08.7,05.7,0650.2,30.9
2021-03-17T22:21:00Z,00040200,00000000,0000.47,0000.42,0000.47,-000.15,0000.05,-000.07,0001.10,0000.46,0000.83,17.5,24.3,09.2,06.1,0650.4,30.9
2021-03-17T22:22:00Z,00040200,00000000,0000.14,0000.49,0000.53,0000.19,0000.26,0000.03,0001.15,0001.09,0001.01,17.5,24.3,08.9,05.9,0650.5,30.9
2021-03-17T22:23:00Z,00040200,00000000,0000.62,0000.75,0000.81,-000.01,0000.07,0000.36,0001.81,0001.96,0001.49,17.5,24.3,09.5,06.2,0650.5,30.9
2021-03-17T22:24:00Z,00040200,00000000,0000.19,0000.50,0000.37,-000.05,0000.22,0000.38,-002.60,-002.20,-001.61,17.5,24.3,08.7,05.8,0650.4,30.9
2021-03-17T22:25:00Z,00040200,00000000,0000.28,0000.34,0000.29,0000.11,0000.01,-000.02,0000.13,-000.25,-000.04,17.5,24.3,07.6,05.0,0650.4,30.9
2021-03-17T22:26:00Z,00040200,00000000,0000.35,0000.51,0000.30,0000.47,0000.06,0000.33,-000.44,-000.52,-000.53,17.5,24.3,07.4,04.9,0650.3,30.9
2021-03-17T22:27:00Z,00040200,00000000,-000.26,0000.21,0000.28,0000.14,0000.08,0000.06,-001.03,-000.76,-000.45,17.5,24.3,07.1,04.7,0650.4,30.9
2021-03-17T22:28:00Z,00040200,00000000,-000.56,0000.13,0000.47,0000.43,0000.21,0000.03,0000.66,0000.42,0000.58,17.5,24.3,06.9,04.5,0650.5,30.9
2021-03-17T22:29:00Z,00040200,00000000,-000.10,0000.43,0000.22,0000.29,-000.07,-000.05,0000.35,0000.28,0000.27,17.5,24.2,06.7,04.5,0650.5,30.9
2021-03-17T22:30:00Z,00040200,00000000,0000.25,-000.08,0000.31,-000.06,0000.24,0000.00,0001.45,0001.32,0001.10,17.5,24.2,06.9,04.6,0650.6,30.9
2021-03-17T22:31:00Z,00040200,00000000,0000.76,0000.31,0000.33,-000.20,-000.08,0000.16,0000.42,0000.39,0000.49,17.5,24.3,07.2,04.7,0650.7,30.9
2021-03-17T22:32:00Z,00040200,00000000,-000.09,0000.37,0000.47,0000.18,0000.11,0000.17,0001.09,0001.48,0001.10,17.5,24.3,07.4,04.9,0650.7,30.9
2021-03-17T22:33:00Z,00040200,00000000,0000.53,0000.18,0000.51,0000.21,0000.32,0000.14,0000.05,-000.02,0000.00,17.5,24.3,07.6,05.1,0650.7,30.9
2021-03-17T22:34:00Z,00040200,00000000,-000.33,0000.35,0000.57,-000.13,0000.34,0000.08,0003.46,0003.58,0002.81,17.5,24.3,07.8,05.2,0650.7,30.9
2021-03-17T22:35:00Z,00040200,00000000,0000.59,0000.46,0000.44,0000.55,0000.16,0000.12,0004.20,0003.71,0003.32,17.5,24.3,09.5,06.3,0650.6,30.9
2021-03-17T22:36:00Z,00040200,00000000,0000.26,0000.40,0000.58,0000.07,0000.33,0000.34,0000.63,0000.75,0000.49,17.5,24.3,10.3,06.8,0650.8,30.9
2021-03-17T22:37:00Z,00040200,00000000,0000.11,0000.39,0000.49,0000.02,0000.14,0000.17,-000.36,-000.37,-000.15,17.5,24.3,10.0,06.6,0650.9,30.9
2021-03-17T22:38:00Z,00040200,00000000,0000.58,0000.11,0000.32,0000.28,0000.15,0000.16,-002.10,-002.13,-001.85,17.5,24.3,08.8,05.8,0650.7,30.9
2021-03-17T22:39:00Z,00040200,00000000,-000.41,0000.38,0000.38,0000.02,0000.13,0000.13,-001.26,-001.46,-000.74,17.5,24.3,07.8,05.1,0650.8,30.9
2021-03-17T22:40:00Z,00040200,00000000,0000.17,0000.12,0000.43,0000.23,0000.04,0000.17,-001.06,-001.05,-000.91,17.5,24.3,07.0,04.6,0650.8,30.9
2021-03-17T22:41:00Z,00040200,00000000,-000.07,-000.18,-000.03,-000.16,0000.09,-000.06,0000.22,0000.37,0000.10,17.5,24.3,06.7,04.4,0650.8,30.9
2021-03-17T22:42:00Z,00040200,00000000,0000.01,0000.30,-000.05,0000.33,0000.17,0000.13,-001.04,-000.91,-000.69,17.6,24.3,06.4,04.3,0650.9,31.0
2021-03-17T22:43:00Z,00040200,00000000,-000.03,-000.19,0000.18,0000.20,-000.02,-000.28,-000.27,0000.02,0000.18,17.6,24.3,06.2,04.1,0650.9,30.9
2021-03-17T22:44:00Z,00040200,00000000,0000.33,0000.55,0000.38,0000.18,-000.01,-000.05,0005.11,0004.55,0003.63,17.6,24.3,06.8,04.5,0650.9,30.9
2021-03-17T22:45:00Z,00040200,00000000,0000.06,0000.25,0000.64,0000.09,0000.06,0000.10,0000.90,0001.13,0000.86,17.6,24.3,08.2,05.5,0651.0,31.0
2021-03-17T22:46:00Z,00040200,00000000,-000.22,0000.33,0000.47,0000.47,0000.31,0000.24,-000.59,-000.32,-000.06,17.6,24.3,08.1,05.3,0651.0,30.9
2021-03-17T22:47:00Z,00040200,00000000,0000.57,0000.37,0000.53,0000.20,0000.13,0000.32,-001.88,-001.99,-001.74,17.6,24.3,07.5,05.0,0651.0,31.0
2021-03-17T22:48:00Z,00040200,00000000,0000.43,0000.10,0000.10,0000.11,0000.24,0000.11,-000.78,-000.97,-000.46,17.6,24.3,06.6,04.4,0651.0,31.0
2021-03-17T22:49:00Z,00040200,00000000,0000.70,0000.15,0000.52,0000.54,-000.11,0000.06,0000.35,0000.39,0000.32,17.6,24.3,06.3,04.2,0651.0,31.0
2021-03-17T22:50:00Z,00040200,00000000,-000.18,0000.12,0000.23,-000.24,0000.13,0000.17,-000.92,-001.03,-000.38,17.6,24.3,06.2,04.1,0651.1,31.0
2021-03-17T22:51:00Z,00040200,00000000,0000.19,0000.24,0000.44,0000.12,0000.09,0000.15,-000.88,-000.10,-000.28,17.6,24.3,05.8,03.8,0651.0,31.0
2021-03-17T22:52:00Z,00040200,00000000,-000.06,0000.31,0000.04,0000.03,0000.19,0000.01,0000.31,-000.20,0000.11,17.6,24.3,05.6,03.7,0650.9,31.0
2021-03-17T22:53:00Z,00040200,00000000,0000.23,0000.09,0000.30,0000.14,0000.20,0000.09,0001.60,0001.68,0001.02,17.6,24.3,05.9,03.9,0651.0,31.0
2021-03-17T22:54:00Z,00040200,00000000,0000.04,0000.23,0000.11,0000.05,0000.10,0000.14,-000.84,-000.93,-000.63,17.6,24.3,06.0,04.0,0651.0,30.9
2021-03-17T22:55:00Z,00040200,00000000,0000.22,0000.10,0000.31,0000.55,0000.06,0000.12,-000.76,-000.58,-000.58,17.6,24.3,05.5,03.6,0651.0,30.9
2021-03-17T22:56:00Z,00040200,00000000,-000.32,0000.27,0000.20,0000.11,0000.29,0000.01,0000.38,0000.28,0000.14,17.6,24.3,05.3,03.5,0651.1,30.9
2021-03-17T22:57:00Z,00040200,40000000,,,,,,,0003.58,0003.32,0003.05,17.7,24.3,04.8,03.2,0651.2,31.0
2021-03-17T22:58:00Z,00040200,60000000,,,,,,,-000.00,0000.29,0000.12,17.4,24.4,06.7,04.3,0650.2,31.0
2021-03-17T22:59:00Z,00040200,20000000,,,,,,,0000.94,0000.93,0000.71,17.4,24.5,06.7,04.3,0650.1,31.0
